Year,Month,Day,Hour,Minute,Value (Times are PST for temperature in C)
2018,07,16,00,00,17.60
2018,07,16,00,01,17.60
2018,07,16,00,02,17.60
2018,07,16,00,03,17.60
2018,07,16,00,04,17.60
2018,07,16,00,05,17.50
2018,07,16,00,06,17.50
2018,07,16,00,07,17.40
2018,07,16,00,08,17.40
2018,07,16,00,09,17.30
2018,07,16,00,10,17.30
2018,07,16,00,11,17.20
2018,07,16,00,12,17.20
2018,07,16,00,13,17.10
2018,07,16,00,14,17.10
2018,07,16,00,15,17.00
2018,07,16,00,16,17.00
2018,07,16,00,17,16.90
2018,07,16,00,18,16.80
2018,07,16,00,19,16.80
2018,07,16,00,20,16.80
2018,07,16,00,21,16.70
2018,07,16,00,22,16.70
2018,07,16,00,23,16.60
2018,07,16,00,24,16.60
2018,07,16,00,25,16.60
2018,07,16,00,26,16.50
2018,07,16,00,27,16.50
2018,07,16,00,28,16.50
2018,07,16,00,29,16.40
2018,07,16,00,30,16.40
2018,07,16,00,31,16.40
2018,07,16,00,32,16.40
2018,07,16,00,33,16.40
2018,07,16,00,34,16.30
2018,07,16,00,35,16.30
2018,07,16,00,36,16.30
2018,07,16,00,37,16.30
2018,07,16,00,38,16.30
2018,07,16,00,39,16.30
2018,07,16,00,40,16.30
2018,07,16,00,41,16.20
2018,07,16,00,42,16.20
2018,07,16,00,43,16.20
2018,07,16,00,44,16.20
2018,07,16,00,45,16.20
2018,07,16,00,46,16.20
2018,07,16,00,47,16.20
2018,07,16,00,48,16.20
2018,07,16,00,49,16.20
2018,07,16,00,50,16.20
2018,07,16,00,51,16.20
2018,07,16,00,52,16.20
2018,07,16,00,53,16.20
2018,07,16,00,54,16.20
2018,07,16,00,55,16.20
2018,07,16,00,56,16.20
2018,07,16,00,57,16.20
2018,07,16,00,58,16.20
2018,07,16,00,59,16.20
2018,07,16,01,00,16.20
2018,07,16,01,01,16.20
2018,07,16,01,02,16.20
2018,07,16,01,03,16.10
2018,07,16,01,04,16.10
2018,07,16,01,05,16.10
2018,07,16,01,06,16.10
2018,07,16,01,07,16.10
2018,07,16,01,08,16.10
2018,07,16,01,09,16.10
2018,07,16,01,10,16.10
2018,07,16,01,11,16.10
2018,07,16,01,12,16.10
2018,07,16,01,13,16.10
2018,07,16,01,14,16.10
2018,07,16,01,15,16.10
2018,07,16,01,16,16.10
2018,07,16,01,17,16.10
2018,07,16,01,18,16.00
2018,07,16,01,19,16.00
2018,07,16,01,20,16.00
2018,07,16,01,21,16.00
2018,07,16,01,22,15.90
2018,07,16,01,23,15.90
2018,07,16,01,24,15.90
2018,07,16,01,25,15.90
2018,07,16,01,26,15.90
2018,07,16,01,27,15.80
2018,07,16,01,28,15.80
2018,07,16,01,29,15.80
2018,07,16,01,30,15.80
2018,07,16,01,31,15.80
2018,07,16,01,32,15.70
2018,07,16,01,33,15.70
2018,07,16,01,34,15.70
2018,07,16,01,35,15.70
2018,07,16,01,36,15.70
2018,07,16,01,37,15.60
2018,07,16,01,38,15.60
2018,07,16,01,39,15.60
2018,07,16,01,40,15.60
2018,07,16,01,41,15.60
2018,07,16,01,42,15.50
2018,07,16,01,43,15.50
2018,07,16,01,44,15.50
2018,07,16,01,45,15.50
2018,07,16,01,46,15.40
2018,07,16,01,47,15.40
2018,07,16,01,48,15.40
2018,07,16,01,49,15.40
2018,07,16,01,50,15.30
2018,07,16,01,51,15.30
2018,07,16,01,52,15.30
2018,07,16,01,53,15.30
2018,07,16,01,54,15.30
2018,07,16,01,55,15.20
2018,07,16,01,56,15.20
2018,07,16,01,57,15.20
2018,07,16,01,58,15.20
2018,07,16,01,59,15.20
2018,07,16,02,00,15.20
2018,07,16,02,01,15.20
2018,07,16,02,02,15.20
2018,07,16,02,03,15.20
2018,07,16,02,04,15.20
2018,07,16,02,05,15.20
2018,07,16,02,06,15.20
2018,07,16,02,07,15.20
2018,07,16,02,08,15.20
2018,07,16,02,09,15.20
2018,07,16,02,10,15.20
2018,07,16,02,11,15.20
2018,07,16,02,12,15.20
2018,07,16,02,13,15.10
2018,07,16,02,14,15.10
2018,07,16,02,15,15.10
2018,07,16,02,16,15.10
2018,07,16,02,17,15.10
2018,07,16,02,18,15.10
2018,07,16,02,19,15.10
2018,07,16,02,20,15.10
2018,07,16,02,21,15.10
2018,07,16,02,22,15.10
2018,07,16,02,23,15.10
2018,07,16,02,24,15.10
2018,07,16,02,25,15.20
2018,07,16,02,26,15.20
2018,07,16,02,27,15.20
2018,07,16,02,28,15.20
2018,07,16,02,29,15.30
2018,07,16,02,30,15.30
2018,07,16,02,31,15.30
2018,07,16,02,32,15.40
2018,07,16,02,33,15.40
2018,07,16,02,34,15.40
2018,07,16,02,35,15.40
2018,07,16,02,36,15.50
2018,07,16,02,37,15.50
2018,07,16,02,38,15.50
2018,07,16,02,39,15.50
2018,07,16,02,40,15.50
2018,07,16,02,41,15.50
2018,07,16,02,42,15.60
2018,07,16,02,43,15.60
2018,07,16,02,44,15.60
2018,07,16,02,45,15.60
2018,07,16,02,46,15.60
2018,07,16,02,47,15.60
2018,07,16,02,48,15.60
2018,07,16,02,49,15.60
2018,07,16,02,50,15.60
2018,07,16,02,51,15.60
2018,07,16,02,52,15.60
2018,07,16,02,53,15.50
2018,07,16,02,54,15.50
2018,07,16,02,55,15.50
2018,07,16,02,56,15.50
2018,07,16,02,57,15.50
2018,07,16,02,58,15.40
2018,07,16,02,59,15.40
2018,07,16,03,00,15.40
2018,07,16,03,01,15.40
2018,07,16,03,02,15.30
2018,07,16,03,03,15.30
2018,07,16,03,04,15.30
2018,07,16,03,05,15.30
2018,07,16,03,06,15.30
2018,07,16,03,07,15.20
2018,07,16,03,08,15.20
2018,07,16,03,09,15.20
2018,07,16,03,10,15.20
2018,07,16,03,11,15.10
2018,07,16,03,12,15.10
2018,07,16,03,13,15.10
2018,07,16,03,14,15.00
2018,07,16,03,15,15.00
2018,07,16,03,16,14.90
2018,07,16,03,17,14.90
2018,07,16,03,18,14.90
2018,07,16,03,19,14.90
2018,07,16,03,20,14.80
2018,07,16,03,21,14.80
2018,07,16,03,22,14.80
2018,07,16,03,23,14.80
2018,07,16,03,24,14.70
2018,07,16,03,25,14.70
2018,07,16,03,26,14.70
2018,07,16,03,27,14.70
2018,07,16,03,28,14.60
2018,07,16,03,29,14.60
2018,07,16,03,30,14.60
2018,07,16,03,31,14.50
2018,07,16,03,32,14.50
2018,07,16,03,33,14.40
2018,07,16,03,34,14.40
2018,07,16,03,35,14.30
2018,07,16,03,36,14.30
2018,07,16,03,37,14.30
2018,07,16,03,38,14.20
2018,07,16,03,39,14.20
2018,07,16,03,40,14.10
2018,07,16,03,41,14.10
2018,07,16,03,42,14.00
2018,07,16,03,43,14.00
2018,07,16,03,44,13.90
2018,07,16,03,45,13.90
2018,07,16,03,46,13.80
2018,07,16,03,47,13.80
2018,07,16,03,48,13.70
2018,07,16,03,49,13.70
2018,07,16,03,50,13.70
2018,07,16,03,51,13.60
2018,07,16,03,52,13.60
2018,07,16,03,53,13.60
2018,07,16,03,54,13.50
2018,07,16,03,55,13.50
2018,07,16,03,56,13.40
2018,07,16,03,57,13.40
2018,07,16,03,58,13.40
2018,07,16,03,59,13.30
2018,07,16,04,00,13.30
2018,07,16,04,01,13.30
2018,07,16,04,02,13.30
2018,07,16,04,03,13.20
2018,07,16,04,04,13.20
2018,07,16,04,05,13.20
2018,07,16,04,06,13.20
2018,07,16,04,07,13.20
2018,07,16,04,08,13.20
2018,07,16,04,09,13.20
2018,07,16,04,10,13.10
2018,07,16,04,11,13.10
2018,07,16,04,12,13.10
2018,07,16,04,13,13.10
2018,07,16,04,14,13.10
2018,07,16,04,15,13.10
2018,07,16,04,16,13.10
2018,07,16,04,17,13.10
2018,07,16,04,18,13.10
2018,07,16,04,19,13.10
2018,07,16,04,20,13.00
2018,07,16,04,21,13.00
2018,07,16,04,22,13.00
2018,07,16,04,23,12.90
2018,07,16,04,24,12.90
2018,07,16,04,25,12.90
2018,07,16,04,26,12.90
2018,07,16,04,27,12.90
2018,07,16,04,28,12.90
2018,07,16,04,29,12.90
2018,07,16,04,30,12.80
2018,07,16,04,31,12.80
2018,07,16,04,32,12.80
2018,07,16,04,33,12.80
2018,07,16,04,34,12.80
2018,07,16,04,35,12.80
2018,07,16,04,36,12.80
2018,07,16,04,37,12.80
2018,07,16,04,38,12.80
2018,07,16,04,39,12.80
2018,07,16,04,40,12.80
2018,07,16,04,41,12.80
2018,07,16,04,42,12.80
2018,07,16,04,43,12.80
2018,07,16,04,44,12.80
2018,07,16,04,45,12.80
2018,07,16,04,46,12.80
2018,07,16,04,47,12.80
2018,07,16,04,48,12.70
2018,07,16,04,49,12.70
2018,07,16,04,50,12.70
2018,07,16,04,51,12.70
2018,07,16,04,52,12.70
2018,07,16,04,53,12.70
2018,07,16,04,54,12.70
2018,07,16,04,55,12.70
2018,07,16,04,56,12.80
2018,07,16,04,57,12.80
2018,07,16,04,58,12.80
2018,07,16,04,59,12.80
2018,07,16,05,00,12.80
2018,07,16,05,01,12.80
2018,07,16,05,02,12.80
2018,07,16,05,03,12.80
2018,07,16,05,04,12.80
2018,07,16,05,05,12.90
2018,07,16,05,06,12.80
2018,07,16,05,07,12.80
2018,07,16,05,08,12.80
2018,07,16,05,09,12.80
2018,07,16,05,10,12.80
2018,07,16,05,11,12.80
2018,07,16,05,12,12.80
2018,07,16,05,13,12.80
2018,07,16,05,14,12.80
2018,07,16,05,15,12.80
2018,07,16,05,16,12.70
2018,07,16,05,17,12.70
2018,07,16,05,18,12.70
2018,07,16,05,19,12.70
2018,07,16,05,20,12.70
2018,07,16,05,21,12.70
2018,07,16,05,22,12.70
2018,07,16,05,23,12.70
2018,07,16,05,24,12.70
2018,07,16,05,25,12.70
2018,07,16,05,26,12.70
2018,07,16,05,27,12.70
2018,07,16,05,28,12.60
2018,07,16,05,29,12.60
2018,07,16,05,30,12.60
2018,07,16,05,31,12.60
2018,07,16,05,32,12.60
2018,07,16,05,33,12.60
2018,07,16,05,34,12.60
2018,07,16,05,35,12.60
2018,07,16,05,36,12.60
2018,07,16,05,37,12.60
2018,07,16,05,38,12.60
2018,07,16,05,39,12.60
2018,07,16,05,40,12.60
2018,07,16,05,41,12.50
2018,07,16,05,42,12.60
2018,07,16,05,43,12.50
2018,07,16,05,44,12.50
2018,07,16,05,45,12.50
2018,07,16,05,46,12.60
2018,07,16,05,47,12.60
2018,07,16,05,48,12.60
2018,07,16,05,49,12.70
2018,07,16,05,50,12.70
2018,07,16,05,51,12.70
2018,07,16,05,52,12.70
2018,07,16,05,53,12.70
2018,07,16,05,54,12.70
2018,07,16,05,55,12.70
2018,07,16,05,56,12.80
2018,07,16,05,57,12.80
2018,07,16,05,58,12.80
2018,07,16,05,59,12.80
2018,07,16,06,00,12.80
2018,07,16,06,01,12.90
2018,07,16,06,02,12.90
2018,07,16,06,03,12.90
2018,07,16,06,04,12.90
2018,07,16,06,05,13.00
2018,07,16,06,06,13.00
2018,07,16,06,07,13.10
2018,07,16,06,08,13.10
2018,07,16,06,09,13.10
2018,07,16,06,10,13.10
2018,07,16,06,11,13.20
2018,07,16,06,12,13.20
2018,07,16,06,13,13.20
2018,07,16,06,14,13.30
2018,07,16,06,15,13.30
2018,07,16,06,16,13.30
2018,07,16,06,17,13.30
2018,07,16,06,18,13.40
2018,07,16,06,19,13.40
2018,07,16,06,20,13.40
2018,07,16,06,21,13.50
2018,07,16,06,22,13.50
2018,07,16,06,23,13.50
2018,07,16,06,24,13.60
2018,07,16,06,25,13.60
2018,07,16,06,26,13.60
2018,07,16,06,27,13.60
2018,07,16,06,28,13.70
2018,07,16,06,29,13.70
2018,07,16,06,30,13.70
2018,07,16,06,31,13.80
2018,07,16,06,32,13.80
2018,07,16,06,33,13.90
2018,07,16,06,34,13.90
2018,07,16,06,35,14.00
2018,07,16,06,36,14.00
2018,07,16,06,37,14.10
2018,07,16,06,38,14.20
2018,07,16,06,39,14.20
2018,07,16,06,40,14.30
2018,07,16,06,41,14.30
2018,07,16,06,42,14.40
2018,07,16,06,43,14.50
2018,07,16,06,44,14.60
2018,07,16,06,45,14.70
2018,07,16,06,46,14.70
2018,07,16,06,47,14.80
2018,07,16,06,48,14.90
2018,07,16,06,49,15.00
2018,07,16,06,50,15.00
2018,07,16,06,51,15.10
2018,07,16,06,52,15.20
2018,07,16,06,53,15.30
2018,07,16,06,54,15.40
2018,07,16,06,55,15.50
2018,07,16,06,56,15.60
2018,07,16,06,57,15.70
2018,07,16,06,58,15.80
2018,07,16,06,59,15.90
2018,07,16,07,00,16.00
2018,07,16,07,01,16.10
2018,07,16,07,02,16.20
2018,07,16,07,03,16.30
2018,07,16,07,04,16.40
2018,07,16,07,05,16.50
2018,07,16,07,06,16.60
2018,07,16,07,07,16.60
2018,07,16,07,08,16.70
2018,07,16,07,09,16.80
2018,07,16,07,10,16.90
2018,07,16,07,11,16.90
2018,07,16,07,12,17.00
2018,07,16,07,13,17.10
2018,07,16,07,14,17.20
2018,07,16,07,15,17.30
2018,07,16,07,16,17.30
2018,07,16,07,17,17.40
2018,07,16,07,18,17.50
2018,07,16,07,19,17.50
2018,07,16,07,20,17.60
2018,07,16,07,21,17.70
2018,07,16,07,22,17.70
2018,07,16,07,23,17.70
2018,07,16,07,24,17.80
2018,07,16,07,25,17.80
2018,07,16,07,26,17.80
2018,07,16,07,27,17.80
2018,07,16,07,28,17.90
2018,07,16,07,29,17.90
2018,07,16,07,30,17.90
2018,07,16,07,31,18.00
2018,07,16,07,32,18.00
2018,07,16,07,33,18.00
2018,07,16,07,34,18.00
2018,07,16,07,35,18.10
2018,07,16,07,36,18.10
2018,07,16,07,37,18.10
2018,07,16,07,38,18.20
2018,07,16,07,39,18.20
2018,07,16,07,40,18.30
2018,07,16,07,41,18.30
2018,07,16,07,42,18.40
2018,07,16,07,43,18.50
2018,07,16,07,44,18.50
2018,07,16,07,45,18.60
2018,07,16,07,46,18.60
2018,07,16,07,47,18.60
2018,07,16,07,48,18.70
2018,07,16,07,49,18.70
2018,07,16,07,50,18.80
2018,07,16,07,51,18.80
2018,07,16,07,52,18.90
2018,07,16,07,53,18.90
2018,07,16,07,54,19.00
2018,07,16,07,55,19.10
2018,07,16,07,56,19.10
2018,07,16,07,57,19.20
2018,07,16,07,58,19.20
2018,07,16,07,59,19.20
2018,07,16,08,00,19.30
2018,07,16,08,01,19.30
2018,07,16,08,02,19.30
2018,07,16,08,03,19.40
2018,07,16,08,04,19.40
2018,07,16,08,05,19.40
2018,07,16,08,06,19.50
2018,07,16,08,07,19.50
2018,07,16,08,08,19.50
2018,07,16,08,09,19.60
2018,07,16,08,10,19.60
2018,07,16,08,11,19.60
2018,07,16,08,12,19.70
2018,07,16,08,13,19.70
2018,07,16,08,14,19.70
2018,07,16,08,15,19.70
2018,07,16,08,16,19.70
2018,07,16,08,17,19.60
2018,07,16,08,18,19.60
2018,07,16,08,19,19.60
2018,07,16,08,20,19.60
2018,07,16,08,21,19.60
2018,07,16,08,22,19.70
2018,07,16,08,23,19.70
2018,07,16,08,24,19.70
2018,07,16,08,25,19.70
2018,07,16,08,26,19.70
2018,07,16,08,27,19.70
2018,07,16,08,28,19.80
2018,07,16,08,29,19.80
2018,07,16,08,30,19.80
2018,07,16,08,31,19.90
2018,07,16,08,32,19.90
2018,07,16,08,33,19.90
2018,07,16,08,34,19.90
2018,07,16,08,35,19.90
2018,07,16,08,36,19.90
2018,07,16,08,37,19.90
2018,07,16,08,38,19.80
2018,07,16,08,39,19.80
2018,07,16,08,40,19.80
2018,07,16,08,41,19.80
2018,07,16,08,42,19.80
2018,07,16,08,43,19.80
2018,07,16,08,44,19.90
2018,07,16,08,45,19.90
2018,07,16,08,46,19.90
2018,07,16,08,47,19.90
2018,07,16,08,48,20.00
2018,07,16,08,49,20.00
2018,07,16,08,50,20.10
2018,07,16,08,51,20.10
2018,07,16,08,52,20.10
2018,07,16,08,53,20.10
2018,07,16,08,54,20.10
2018,07,16,08,55,20.10
2018,07,16,08,56,20.20
2018,07,16,08,57,20.20
2018,07,16,08,58,20.20
2018,07,16,08,59,20.10
2018,07,16,09,00,20.10
2018,07,16,09,01,20.00
2018,07,16,09,02,20.00
2018,07,16,09,03,19.90
2018,07,16,09,04,19.80
2018,07,16,09,05,19.80
2018,07,16,09,06,19.70
2018,07,16,09,07,19.60
2018,07,16,09,08,19.60
2018,07,16,09,09,19.50
2018,07,16,09,10,19.40
2018,07,16,09,11,19.40
2018,07,16,09,12,19.30
2018,07,16,09,13,19.30
2018,07,16,09,14,19.30
2018,07,16,09,15,19.30
2018,07,16,09,16,19.30
2018,07,16,09,17,19.30
2018,07,16,09,18,19.30
2018,07,16,09,19,19.30
2018,07,16,09,20,19.30
2018,07,16,09,21,19.40
2018,07,16,09,22,19.50
2018,07,16,09,23,19.50
2018,07,16,09,24,19.60
2018,07,16,09,25,19.70
2018,07,16,09,26,19.70
2018,07,16,09,27,19.60
2018,07,16,09,28,19.60
2018,07,16,09,29,19.50
2018,07,16,09,30,19.50
2018,07,16,09,31,19.50
2018,07,16,09,32,19.40
2018,07,16,09,33,19.40
2018,07,16,09,34,19.40
2018,07,16,09,35,19.40
2018,07,16,09,36,19.30
2018,07,16,09,37,19.30
2018,07,16,09,38,19.30
2018,07,16,09,39,19.30
2018,07,16,09,40,19.30
2018,07,16,09,41,19.30
2018,07,16,09,42,19.30
2018,07,16,09,43,19.30
2018,07,16,09,44,19.30
2018,07,16,09,45,19.30
2018,07,16,09,46,19.20
2018,07,16,09,47,19.20
2018,07,16,09,48,19.20
2018,07,16,09,49,19.20
2018,07,16,09,50,19.20
2018,07,16,09,51,19.10
2018,07,16,09,52,19.10
2018,07,16,09,53,19.10
2018,07,16,09,54,19.10
2018,07,16,09,55,19.00
2018,07,16,09,56,18.90
2018,07,16,09,57,18.90
2018,07,16,09,58,18.80
2018,07,16,09,59,18.80
2018,07,16,10,00,18.70
2018,07,16,10,01,18.60
2018,07,16,10,02,18.50
2018,07,16,10,03,18.40
2018,07,16,10,04,18.40
2018,07,16,10,05,18.30
2018,07,16,10,06,18.20
2018,07,16,10,07,18.20
2018,07,16,10,08,18.20
2018,07,16,10,09,18.10
2018,07,16,10,10,18.10
2018,07,16,10,11,18.10
2018,07,16,10,12,18.10
2018,07,16,10,13,18.10
2018,07,16,10,14,18.10
2018,07,16,10,15,18.10
2018,07,16,10,16,18.10
2018,07,16,10,17,18.20
2018,07,16,10,18,18.20
2018,07,16,10,19,18.20
2018,07,16,10,20,18.20
2018,07,16,10,21,18.30
2018,07,16,10,22,18.30
2018,07,16,10,23,18.40
2018,07,16,10,24,18.50
2018,07,16,10,25,18.50
2018,07,16,10,26,18.60
2018,07,16,10,27,18.60
2018,07,16,10,28,18.70
2018,07,16,10,29,18.70
2018,07,16,10,30,18.80
2018,07,16,10,31,18.90
2018,07,16,10,32,18.90
2018,07,16,10,33,19.00
2018,07,16,10,34,19.00
2018,07,16,10,35,19.10
2018,07,16,10,36,19.20
2018,07,16,10,37,19.20
2018,07,16,10,38,19.30
2018,07,16,10,39,19.40
2018,07,16,10,40,19.50
2018,07,16,10,41,19.50
2018,07,16,10,42,19.60
2018,07,16,10,43,19.70
2018,07,16,10,44,19.70
2018,07,16,10,45,19.70
2018,07,16,10,46,19.70
2018,07,16,10,47,19.80
2018,07,16,10,48,19.80
2018,07,16,10,49,19.80
2018,07,16,10,50,19.80
2018,07,16,10,51,19.90
2018,07,16,10,52,19.90
2018,07,16,10,53,19.90
2018,07,16,10,54,20.00
2018,07,16,10,55,20.00
2018,07,16,10,56,20.00
2018,07,16,10,57,20.00
2018,07,16,10,58,20.00
2018,07,16,10,59,19.90
2018,07,16,11,00,19.90
2018,07,16,11,01,19.90
2018,07,16,11,02,19.90
2018,07,16,11,03,19.90
2018,07,16,11,04,20.00
2018,07,16,11,05,20.00
2018,07,16,11,06,20.00
2018,07,16,11,07,20.00
2018,07,16,11,08,20.00
2018,07,16,11,09,20.00
2018,07,16,11,10,20.00
2018,07,16,11,11,20.00
2018,07,16,11,12,19.90
2018,07,16,11,13,19.90
2018,07,16,11,14,19.90
2018,07,16,11,15,19.90
2018,07,16,11,16,19.90
2018,07,16,11,17,20.00
2018,07,16,11,18,20.00
2018,07,16,11,19,20.00
2018,07,16,11,20,20.00
2018,07,16,11,21,20.00
2018,07,16,11,22,20.00
2018,07,16,11,23,20.10
2018,07,16,11,24,20.10
2018,07,16,11,25,20.10
2018,07,16,11,26,20.20
2018,07,16,11,27,20.20
2018,07,16,11,28,20.20
2018,07,16,11,29,20.30
2018,07,16,11,30,20.30
2018,07,16,11,31,20.40
2018,07,16,11,32,20.40
2018,07,16,11,33,20.50
2018,07,16,11,34,20.50
2018,07,16,11,35,20.60
2018,07,16,11,36,20.60
2018,07,16,11,37,20.70
2018,07,16,11,38,20.70
2018,07,16,11,39,20.70
2018,07,16,11,40,20.70
2018,07,16,11,41,20.70
2018,07,16,11,42,20.70
2018,07,16,11,43,20.70
2018,07,16,11,44,20.60
2018,07,16,11,45,20.60
2018,07,16,11,46,20.50
2018,07,16,11,47,20.50
2018,07,16,11,48,20.40
2018,07,16,11,49,20.40
2018,07,16,11,50,20.40
2018,07,16,11,51,20.30
2018,07,16,11,52,20.30
2018,07,16,11,53,20.30
2018,07,16,11,54,20.20
2018,07,16,11,55,20.20
2018,07,16,11,56,20.20
2018,07,16,11,57,20.30
2018,07,16,11,58,20.30
2018,07,16,11,59,20.40
2018,07,16,12,00,20.40
2018,07,16,12,01,20.40
2018,07,16,12,02,20.50
2018,07,16,12,03,20.50
2018,07,16,12,04,20.50
2018,07,16,12,05,20.60
2018,07,16,12,06,20.60
2018,07,16,12,07,20.60
2018,07,16,12,08,20.50
2018,07,16,12,09,20.50
2018,07,16,12,10,20.50
2018,07,16,12,11,20.50
2018,07,16,12,12,20.50
2018,07,16,12,13,20.50
2018,07,16,12,14,20.50
2018,07,16,12,15,20.40
2018,07,16,12,16,20.50
2018,07,16,12,17,20.50
2018,07,16,12,18,20.50
2018,07,16,12,19,20.60
2018,07,16,12,20,20.60
2018,07,16,12,21,20.60
2018,07,16,12,22,20.60
2018,07,16,12,23,20.60
2018,07,16,12,24,20.60
2018,07,16,12,25,20.60
2018,07,16,12,26,20.60
2018,07,16,12,27,20.60
2018,07,16,12,28,20.60
2018,07,16,12,29,20.60
2018,07,16,12,30,20.60
2018,07,16,12,31,20.60
2018,07,16,12,32,20.60
2018,07,16,12,33,20.70
2018,07,16,12,34,20.70
2018,07,16,12,35,20.70
2018,07,16,12,36,20.80
2018,07,16,12,37,20.80
2018,07,16,12,38,20.80
2018,07,16,12,39,20.90
2018,07,16,12,40,21.00
2018,07,16,12,41,21.10
2018,07,16,12,42,21.10
2018,07,16,12,43,21.20
2018,07,16,12,44,21.30
2018,07,16,12,45,21.30
2018,07,16,12,46,21.40
2018,07,16,12,47,21.50
2018,07,16,12,48,21.60
2018,07,16,12,49,21.60
2018,07,16,12,50,21.70
2018,07,16,12,51,21.80
2018,07,16,12,52,21.90
2018,07,16,12,53,22.00
2018,07,16,12,54,22.00
2018,07,16,12,55,22.10
2018,07,16,12,56,22.10
2018,07,16,12,57,22.20
2018,07,16,12,58,22.30
2018,07,16,12,59,22.30
2018,07,16,13,00,22.30
2018,07,16,13,01,22.30
2018,07,16,13,02,22.30
2018,07,16,13,03,22.20
2018,07,16,13,04,22.10
2018,07,16,13,05,22.10
2018,07,16,13,06,22.00
2018,07,16,13,07,22.00
2018,07,16,13,08,22.00
2018,07,16,13,09,22.00
2018,07,16,13,10,22.00
2018,07,16,13,11,22.10
2018,07,16,13,12,22.10
2018,07,16,13,13,22.20
2018,07,16,13,14,22.20
2018,07,16,13,15,22.30
2018,07,16,13,16,22.40
2018,07,16,13,17,22.50
2018,07,16,13,18,22.60
2018,07,16,13,19,22.60
2018,07,16,13,20,22.70
2018,07,16,13,21,22.70
2018,07,16,13,22,22.70
2018,07,16,13,23,22.70
2018,07,16,13,24,22.70
2018,07,16,13,25,22.60
2018,07,16,13,26,22.60
2018,07,16,13,27,22.60
2018,07,16,13,28,22.50
2018,07,16,13,29,22.60
2018,07,16,13,30,22.60
2018,07,16,13,31,22.60
2018,07,16,13,32,22.60
2018,07,16,13,33,22.70
2018,07,16,13,34,22.70
2018,07,16,13,35,22.80
2018,07,16,13,36,22.90
2018,07,16,13,37,23.00
2018,07,16,13,38,23.10
2018,07,16,13,39,23.20
2018,07,16,13,40,23.30
2018,07,16,13,41,23.40
2018,07,16,13,42,23.50
2018,07,16,13,43,23.60
2018,07,16,13,44,23.60
2018,07,16,13,45,23.70
2018,07,16,13,46,23.70
2018,07,16,13,47,23.70
2018,07,16,13,48,23.70
2018,07,16,13,49,23.80
2018,07,16,13,50,23.80
2018,07,16,13,51,23.80
2018,07,16,13,52,23.90
2018,07,16,13,53,24.00
2018,07,16,13,54,24.00
2018,07,16,13,55,24.10
2018,07,16,13,56,24.20
2018,07,16,13,57,24.30
2018,07,16,13,58,24.30
2018,07,16,13,59,24.40
2018,07,16,14,00,24.40
2018,07,16,14,01,24.50
2018,07,16,14,02,24.50
2018,07,16,14,03,24.60
2018,07,16,14,04,24.60
2018,07,16,14,05,24.70
2018,07,16,14,06,24.80
2018,07,16,14,07,24.80
2018,07,16,14,08,24.80
2018,07,16,14,09,24.80
2018,07,16,14,10,24.80
2018,07,16,14,11,24.80
2018,07,16,14,12,24.70
2018,07,16,14,13,24.70
2018,07,16,14,14,24.70
2018,07,16,14,15,24.70
2018,07,16,14,16,24.70
2018,07,16,14,17,24.70
2018,07,16,14,18,24.70
2018,07,16,14,19,24.70
2018,07,16,14,20,24.70
2018,07,16,14,21,24.70
2018,07,16,14,22,24.70
2018,07,16,14,23,24.70
2018,07,16,14,24,24.70
2018,07,16,14,25,24.70
2018,07,16,14,26,24.70
2018,07,16,14,27,24.70
2018,07,16,14,28,24.70
2018,07,16,14,29,24.70
2018,07,16,14,30,24.60
2018,07,16,14,31,24.50
2018,07,16,14,32,24.40
2018,07,16,14,33,24.30
2018,07,16,14,34,24.30
2018,07,16,14,35,24.20
2018,07,16,14,36,24.20
2018,07,16,14,37,24.10
2018,07,16,14,38,24.10
2018,07,16,14,39,24.10
2018,07,16,14,40,24.10
2018,07,16,14,41,24.10
2018,07,16,14,42,24.20
2018,07,16,14,43,24.20
2018,07,16,14,44,24.30
2018,07,16,14,45,24.40
2018,07,16,14,46,24.50
2018,07,16,14,47,24.60
2018,07,16,14,48,24.70
2018,07,16,14,49,24.80
2018,07,16,14,50,24.80
2018,07,16,14,51,24.80
2018,07,16,14,52,24.70
2018,07,16,14,53,24.70
2018,07,16,14,54,24.60
2018,07,16,14,55,24.60
2018,07,16,14,56,24.60
2018,07,16,14,57,24.60
2018,07,16,14,58,24.60
2018,07,16,14,59,24.60
2018,07,16,15,00,24.70
2018,07,16,15,01,24.80
2018,07,16,15,02,24.80
2018,07,16,15,03,24.90
2018,07,16,15,04,24.90
2018,07,16,15,05,25.00
2018,07,16,15,06,24.90
2018,07,16,15,07,24.90
2018,07,16,15,08,24.90
2018,07,16,15,09,24.90
2018,07,16,15,10,25.00
2018,07,16,15,11,25.10
2018,07,16,15,12,25.20
2018,07,16,15,13,25.30
2018,07,16,15,14,25.30
2018,07,16,15,15,25.40
2018,07,16,15,16,25.50
2018,07,16,15,17,25.50
2018,07,16,15,18,25.60
2018,07,16,15,19,25.60
2018,07,16,15,20,25.70
2018,07,16,15,21,25.70
2018,07,16,15,22,25.60
2018,07,16,15,23,25.60
2018,07,16,15,24,25.50
2018,07,16,15,25,25.40
2018,07,16,15,26,25.40
2018,07,16,15,27,25.30
2018,07,16,15,28,25.20
2018,07,16,15,29,25.10
2018,07,16,15,30,25.00
2018,07,16,15,31,25.00
2018,07,16,15,32,24.90
2018,07,16,15,33,24.80
2018,07,16,15,34,24.80
2018,07,16,15,35,24.80
2018,07,16,15,36,24.80
2018,07,16,15,37,24.80
2018,07,16,15,38,24.80
2018,07,16,15,39,24.90
2018,07,16,15,40,24.90
2018,07,16,15,41,24.90
2018,07,16,15,42,24.90
2018,07,16,15,43,24.90
2018,07,16,15,44,24.90
2018,07,16,15,45,24.80
2018,07,16,15,46,24.70
2018,07,16,15,47,24.70
2018,07,16,15,48,24.70
2018,07,16,15,49,24.70
2018,07,16,15,50,24.70
2018,07,16,15,51,24.70
2018,07,16,15,52,24.80
2018,07,16,15,53,24.80
2018,07,16,15,54,24.80
2018,07,16,15,55,24.90
2018,07,16,15,56,24.90
2018,07,16,15,57,24.90
2018,07,16,15,58,24.90
2018,07,16,15,59,25.00
2018,07,16,16,00,25.00
2018,07,16,16,01,25.00
2018,07,16,16,02,25.00
2018,07,16,16,03,24.90
2018,07,16,16,04,24.70
2018,07,16,16,05,24.50
2018,07,16,16,06,24.30
2018,07,16,16,07,24.10
2018,07,16,16,08,24.00
2018,07,16,16,09,23.80
2018,07,16,16,10,23.80
2018,07,16,16,11,23.70
2018,07,16,16,12,23.70
2018,07,16,16,13,23.70
2018,07,16,16,14,23.70
2018,07,16,16,15,23.70
2018,07,16,16,16,23.80
2018,07,16,16,17,23.80
2018,07,16,16,18,23.90
2018,07,16,16,19,23.90
2018,07,16,16,20,23.90
2018,07,16,16,21,23.80
2018,07,16,16,22,23.80
2018,07,16,16,23,23.70
2018,07,16,16,24,23.70
2018,07,16,16,25,23.60
2018,07,16,16,26,23.50
2018,07,16,16,27,23.50
2018,07,16,16,28,23.50
2018,07,16,16,29,23.50
2018,07,16,16,30,23.50
2018,07,16,16,31,23.60
2018,07,16,16,32,23.60
2018,07,16,16,33,23.60
2018,07,16,16,34,23.70
2018,07,16,16,35,23.80
2018,07,16,16,36,23.90
2018,07,16,16,37,24.00
2018,07,16,16,38,24.00
2018,07,16,16,39,24.10
2018,07,16,16,40,24.20
2018,07,16,16,41,24.20
2018,07,16,16,42,24.20
2018,07,16,16,43,24.20
2018,07,16,16,44,24.20
2018,07,16,16,45,24.20
2018,07,16,16,46,24.20
2018,07,16,16,47,24.10
2018,07,16,16,48,24.10
2018,07,16,16,49,24.00
2018,07,16,16,50,23.90
2018,07,16,16,51,23.90
2018,07,16,16,52,23.80
2018,07,16,16,53,23.80
2018,07,16,16,54,23.70
2018,07,16,16,55,23.70
2018,07,16,16,56,23.70
2018,07,16,16,57,23.70
2018,07,16,16,58,23.60
2018,07,16,16,59,23.70
2018,07,16,17,00,23.70
2018,07,16,17,01,23.80
2018,07,16,17,02,23.80
2018,07,16,17,03,23.90
2018,07,16,17,04,23.90
2018,07,16,17,05,23.90
2018,07,16,17,06,24.00
2018,07,16,17,07,23.90
2018,07,16,17,08,23.90
2018,07,16,17,09,23.80
2018,07,16,17,10,23.70
2018,07,16,17,11,23.70
2018,07,16,17,12,23.70
2018,07,16,17,13,23.70
2018,07,16,17,14,23.70
2018,07,16,17,15,23.70
2018,07,16,17,16,23.70
2018,07,16,17,17,23.70
2018,07,16,17,18,23.70
2018,07,16,17,19,23.70